Location: Hackberry
(29.5783°N, 96.8797°W)
Time: 15:01:30
(UTC+00:00)

Vanguard 2 Rocket - Pass Details

Date: 18 November 2024
Orbit: 554 x 3296 km, 32.9° (Epoch: 30 November)

Event Time Altitude Azimuth Distance (km) Brightness Sun altitude
Exits shadow 10:26:39 21° 204° (SSW) 2,890 9.2 -32.0°
Maximum altitude 10:33:04 47° 141° (SE) 2,447 9.2 -30.6°
Drops below altitude 10° 10:47:33 10° 75° (ENE) 5,602 11.7 -27.5°
Sets 10:52:53 0° 71° (ENE) 6,927 12.4 -26.4°
